OROVILLE DAM (ORO)

Elevation: 900' · FEATHER R basin · Operator: CA Dept of Water Resources/O & M


Station comments:

12/31/2014Sensor for reservoir elevation has been repaired. Data from 12/30/14, 0900 is valid.
12/30/2014Hourly elevation and storage data is invalid since 12/25/2014. Data is being flagged.


Provisional data, subject to change.
Query executed Saturday at 13:18:06   clock

Select a sensor type for a plot of data.
Note: Reservoir Flows are daily averages.

Earlier

Date RES ELE    STORAGE    RES CHG    TOC STO    ABV TOC    OUTFLOW    INFLOW    EVAP    FNF    PPT INC    RAIN    PPTINC4   
 FEET   AF   AF   AF   AF   CFS   CFS   CFS   CFS   INCHES   INCHES   INCHES  
03/20/2015 760.82 1780648 777 3163000 -1382352 1166 1581 72 1820 0.00 23.04 0.00
03/21/2015 760.90 1781426 778 3163000 -1381574 1174 1668 53 1991 0.00 23.04 0.00
03/22/2015 760.99 1782301 875 3163000 -1380699 1187 1681 53 2698 0.28 23.32 0.00
03/23/2015 761.16 1783955 1654 3163000 -1379045 1104 1965 27 2503 0.00 23.32 0.28
03/24/2015 761.35 1785806 1851 3163000 -1377194 1116 2035 35 2848 0.00 23.32 0.00
03/25/2015 761.45 1786780 974 3163000 -1376220 1102 1677 35 2216 0.00 23.32 0.00
03/26/2015 761.61 1788340 1560 3163000 -1374660 1008 1847 53 1937 0.00 23.32 0.00
03/27/2015 761.74 1789608 1268 3163000 -1373392 1084 1782 58 2238 0.00 23.32 0.00
03/28/2015 761.85 1790681 1073 -- -- 1086 1681 53 2327 0.00 23.32 0.00
03/29/2015 761.94 1791560 879 3163000 -- 1108 1604 53 1941 0.00 23.32 0.00
03/30/2015 761.99 1792048 488 3163000 -- 1120 1377 11 1661 0.00 23.32 0.00
03/31/2015 762.15 1793611 1563 3163000 -- 780 1603 35 1512 0.00 23.32 0.00
04/01/2015 762.20 1794100 489 3172868 -1378768 789 1073 88 1624 0.00 23.32 0.00
04/02/2015 762.36 1795664 1564 3182737 -1387073 773 1666 55 1878 0.00 23.32 0.00
04/03/2015 762.08 1792927 -2737 3122395 -1312246 1835 635 81 1896 e 0.00 23.32 0.00
04/04/2015 761.94 1791560 -1367 3139557 -1331292 1540 903 52 1896 e 0.00 23.32 0.00
04/05/2015 762.12 1793318 1758 3147648 -1353447 1286 2100 26 1895 e 0.28 23.60 0.00
04/06/2015 762.28 1794882 1564 3161527 -1366567 580 1431 63 1853 0.00 23.60 0.28
04/07/2015 762.50 1797034 2152 3149978 -1353699 834 1917 47 3057 1.04 24.64 0.00
04/08/2015 762.61 1798110 1076 3161317 -1362286 787 1414 34 1939 0.00 24.64 1.04
04/09/2015 762.82 1800167 2057 3174425 -1372864 787 1793 19 2186 0.00 24.64 0.00
04/10/2015 762.97 1801637 1470 3180144 -1389489 553 1381 37 2067 0.00 24.64 0.00
04/11/2015 763.10 1802911 1274 3208858 -1405922 538 1220 39 2064 0.00 24.64 0.00
04/12/2015 763.35 1805365 2454 3225403 -1419987 549 1825 39 2087 0.00 24.64 0.00
04/13/2015 763.48 1806642 1277 3241918 -1424968 543 1242 105 1760 e 0.00 24.64 0.00
04/14/2015 763.64 1808214 1572 3258006 -1449734 455 1379 82 1761 e 0.00 24.64 0.00
04/15/2015 763.83 1810082 1868 3274420 -1464281 433 1404 79 1676 0.00 24.64 0.00
04/16/2015 763.98 1811558 1476 3290409 -1478825 517 1398 87 1721 0.00 24.64 0.00
04/17/2015 764.09 1812641 1083 3306417 -1493776 508 1144 90 -- 0.00 24.64 0.00
04/18/2015 -- -- -- -- -- -- -- -- -- -- -- 0.00

Later | Latest

Warning! This data is preliminary and subject to revision.

Show ORO Map | Plot ORO Data | 1 Month ORO Data | Real-Time ORO Data | ORO Info